Regional Weather Roundup
Issued by NWS

Home | Current Version | Previous Version | Graphics & Text | Print | Product List | Glossary On
Versions: 1 2 3 4 5 6 7 8 9 10 11 12 13 14 15 16 17 18 19 20 21 22 23 24 25 26 27 28 29 30 31 32 33 34 35 36 37 38 39 40 41 42 43 44 45 46 47 48 49 50
000
ASUS45 KBOI 281310
RWRID
WEATHER ROUNDUP FOR IDAHO
NATIONAL WEATHER SERVICE BOISE ID
700 AM MDT SAT MAR 28 2015

NOTE: "FAIR" INDICATES FEW OR NO CLOUDS BELOW 12000 FEET
WITH NO SIGNIFICANT WEATHER AND/OR OBSTRUCTIONS TO VISIBILITY

IDZ012-014-281400-
SOUTHWEST IDAHO


CITY           SKY/WX    TMP DP  RH WIND       PRES   REMARKS
BOISE          MOCLDY    58  41  53 W16G24    30.05R
CALDWELL       CLOUDY    57  39  51 SW18      30.08R
MOUNTAIN HOME  MOCLDY    49  38  65 E3        30.03R
$$

IDZ016-017-281400-
SOUTHCENTRAL IDAHO


CITY           SKY/WX    TMP DP  RH WIND       PRES   REMARKS
BURLEY         CLEAR     49  30  48 SW10      30.03R
JEROME         CLEAR     48  30  49 S7        30.06R
TWIN FALLS     CLEAR     54  28  36 SW20      30.06R
$$

IDZ019>023-281400-
SOUTHEAST IDAHO


CITY           SKY/WX    TMP DP  RH WIND       PRES   REMARKS
IDAHO FALLS    PTCLDY    39  30  70 CALM      30.03F
POCATELLO      CLEAR     59  28  30 S13       30.02R
REXBURG        PTCLDY    35  31  85 NE3       30.04S
$$

IDZ006-010-011-018-031-032-281400-
CENTRAL IDAHO MOUNTAINS


CITY           SKY/WX    TMP DP  RH WIND       PRES   REMARKS
MCCALL         CLOUDY    49  39  68 W12       29.97R
HAILEY         PTCLDY    39  32  75 NW9       30.07S WCI  33
STANLEY          N/A     50  30  46 S12G18    30.06F
SALMON         MOCLDY    37  32  81 SE6       29.90F WCI  33
CHALLIS        PTCLDY    39  31  72 S6        29.97S WCI  35
$$

IDZ002-004-006-007-026-281400-
NORTHERN IDAHO


CITY           SKY/WX    TMP DP  RH WIND       PRES   REMARKS
LEWISTON       CLOUDY    51  40  65 S6        30.05R
LOWELL           N/A     49  47  93 CALM      30.08R
COEUR D`ALENE  CLOUDY    48  39  71 SW20      29.94R
MULLAN PASS    LGT SNOW  32  32 100 VRB7      29.90S VSB 3/4 WCI  26
$$



USA.gov is the U.S. government's official web portal to all federal, state and local government web resources and services.